Location: Bald Rock
(37.3738°N, 119.9354°W)
Time: 23:09:26
(UTC+00:00)

NOSS 3-2 (A) - Pass Details

Date: 08 September 2024
Orbit: 700 x 1505 km, 63.4° (Epoch: 12 October)

Event Time Altitude Azimuth Distance (km) Brightness Sun altitude
Exits shadow 12:35:03 10° 213° (SSW) 2,193 4.9 -12.8°
Maximum altitude 12:39:59 85° 303° (WNW) 788 3.0 -11.8°
Drops below altitude 10° 12:45:45 10° 31° (NNE) 2,547 6.4 -10.7°
Sets 12:48:30 0° 33° (NNE) 3,609 7.3 -10.2°
